Regional Weather Roundup
Issued by NWS

Home | Current Version | Previous Version | Text Only | Print | Product List | Glossary On
Versions: 1 2 3 4 5 6 7 8 9 10 11 12 13 14 15 16 17 18 19 20 21 22 23 24 25 26 27 28 29 30 31 32 33 34 35 36 37 38 39 40 41 42 43 44 45 46 47 48 49 50
000
ASUS46 KSEW 242010
RWRWA

WASHINGTON REGIONAL WEATHER ROUNDUP
NATIONAL WEATHER SERVICE SEATTLE WA
100 PM PDT SUN MAY 24 2015

NOTE:"FAIR" INDICATES FEW OR NO CLOUDS BELOW 12,000 FEET WITH NO
SIGNIFICANT WEATHER AND/OR OBSTRUCTIONS TO VISIBILITY.

WAZ505-507>509-242100-
SEATTLE, TACOMA, EVERETT, AND VICINITY

CITY           SKY/WX    TMP DP  RH WIND       PRES   REMARKS
EVERETT        CLOUDY    55  50  83 CALM      30.12F
BOEING FIELD   CLOUDY    63  49  60 SW7       30.11F
RENTON         CLOUDY    61  50  67 S6        30.11F
SEATAC AIRPORT CLOUDY    60  49  66 VRB7      30.12F
JBLM-MCCHORD   CLOUDY    61  52  71 W6        30.11F
PUYALLUP       CLOUDY    61  52  72 CALM      30.11F
BREMERTON      CLOUDY    59  52  77 S8        30.14S
JBLM-FT LEWIS  CLOUDY    60  51  72 VRB6      30.10F
TACOMA NARROWS CLOUDY    57  48  72 SE7       30.12F
$$

WAZ001-503-506-510-514-515-242100-
NORTH INTERIOR

CITY           SKY/WX    TMP DP  RH WIND       PRES   REMARKS
BELLINGHAM     PTSUNNY   58  49  72 S12G20    30.09F
FRIDAY HARBOR  LGT RAIN  58  50  75 SE9       30.10F
EASTSOUND      MOSUNNY   59  50  72 S12       30.07F
PORT ANGELES   MOSUNNY   57  48  72 NW9       30.11S
PORT TOWNSEND  CLOUDY    54  52  94 E5        30.11F
NAS WHIDBEY    CLOUDY    58  56  93 W9        30.15F
ARLINGTON      CLOUDY    55  48  76 SW3       30.13S
BURLINGTON     CLOUDY    59  52  77 S9        30.11F
$$

WAZ020-022-039-040-504-511-512-242100-
SOUTHWEST INTERIOR

CITY           SKY/WX    TMP DP  RH WIND       PRES   REMARKS
SHELTON        CLOUDY    58  50  75 SW9       30.10F
OLYMPIA        CLOUDY    58  49  72 SW9       30.12F
CHEHALIS       CLOUDY    59  52  77 VRB3      30.13F HAZE
KELSO          CLOUDY    59  48  67 NW5       30.16F
VANCOUVER      CLOUDY    59  48  67 SW5       30.13F
SCAPPOOSE, OR  CLOUDY    60  50  69 E5        30.12F
PORTLAND, OR   CLOUDY    60  50  69 W3        30.13F
$$

WAZ021-516-517-242100-
WASHINGTON COAST

CITY           SKY/WX    TMP DP  RH WIND       PRES   REMARKS
FORKS          CLOUDY    53  50  89 W7        30.13F
HOQUIAM        CLOUDY    55  48  77 W7        30.14F
ASTORIA, OR    CLOUDY    56  48  74 NW6       30.15F
$$

WAZ019-023-024-040-518-519-242100-
CASCADE MOUNTAINS AND COLUMBIA GORGE

CITY           SKY/WX    TMP DP  RH WIND       PRES   REMARKS
TROUTDALE, OR  CLOUDY    58  49  72 CALM      30.12F
THE DALLES, OR SUNNY     70  49  47 NW24G32   29.96F
$$

WAZ026-027-041>044-520-521-242100-
EAST SLOPES

CITY           SKY/WX    TMP DP  RH WIND       PRES   REMARKS
OMAK           MOSUNNY   81  48  31 S13       29.87F
WENATCHEE      PTSUNNY   78  45  30 W6        29.90F
ELLENSBURG     PTSUNNY   75  51  43 NW16G25   29.94F
YAKIMA         MOSUNNY   81  48  31 CALM      29.91F
$$

WAZ028-034-035-242100-
COLUMBIA BASIN

CITY           SKY/WX    TMP DP  RH WIND       PRES   REMARKS
EPHRATA        PTSUNNY   78  49  35 VRB5      29.90F
MOSES LAKE     PTSUNNY   79  49  34 S8        29.91F
PASCO          SUNNY     76  52  43 SW3       29.92F
HERMISTON, OR  SUNNY     76  48  37 VRB6      29.92F
$$

WAZ036>038-242100-
NORTHEAST WASHINGTON

CITY           SKY/WX    TMP DP  RH WIND       PRES   REMARKS
SPOKANE GEIGER PTSUNNY   75  46  35 S8G17     29.94F
SPOKANE FELTS  MOSUNNY   80  43  26 VRB3      29.92F
FAIRCHILD AFB  MOSUNNY   74  49  41 SW10      29.95F
COEURDALENE,ID SUNNY     77  39  25 W8        29.91F
DEER PARK      MOSUNNY   75  47  36 VRB5      29.93F
$$

WAZ029>033-242100-
SOUTHEAST WASHINGTON

CITY           SKY/WX    TMP DP  RH WIND       PRES   REMARKS
PULLMAN        SUNNY     69  55  60 MISG      29.98F
LEWISTON, ID   SUNNY     77  49  37 VRB3      29.92F
WALLA WALLA    SUNNY     74  50  42 VRB7      29.94F
PENDLETON, OR  SUNNY     74  50  42 NW10      29.94F
$$


USA.gov is the U.S. government's official web portal to all federal, state and local government web resources and services.